When you browse on this site, cookies collect data to enhance your experience and personalize the content and advertising you see.
Visit our Privacy Policy to learn more. By continuing to use the site, you agree to this use of cookies and data.
  • en France
  • Liste des pays
  • À 7 jours
  • Température de l'eau
  • Carte satellitaire
  • Carte météo
  • Widgets météo
  • user-avatar
    Se connecter

    Météo par heure à Banka

    Ce jour, 19 Juillet, Vendredi

    Heure Température Précipitation Vent Pression Humidité
    00:00 +26°C° 0 mm 1 m/s 754 mmHg 75%
    01:00 +26°C° 0 mm 1 m/s 754 mmHg 74%
    02:00 +26°C° 0 mm 2 m/s 755 mmHg 73%
    03:00 +26°C° 0 mm 3 m/s 755 mmHg 72%
    04:00 +27°C° 0 mm 3 m/s 755 mmHg 68%
    05:00 +28°C° 0 mm 4 m/s 756 mmHg 65%
    06:00 +28°C° 0 mm 4 m/s 757 mmHg 61%
    07:00 +30°C° 0 mm 4 m/s 757 mmHg 56%
    08:00 +32°C° 0 mm 5 m/s 757 mmHg 50%
    09:00 +33°C° 0 mm 5 m/s 757 mmHg 44%
    10:00 +34°C° 0 mm 5 m/s 757 mmHg 43%
    11:00 +34°C° 0 mm 6 m/s 757 mmHg 42%
    12:00 +35°C° 0 mm 6 m/s 757 mmHg 41%
    13:00 +34°C° 0 mm 6 m/s 757 mmHg 42%
    14:00 +34°C° 0 mm 6 m/s 756 mmHg 43%
    15:00 +34°C° 0 mm 5 m/s 756 mmHg 44%
    16:00 +33°C° 0 mm 5 m/s 756 mmHg 46%
    17:00 +32°C° 0 mm 4 m/s 757 mmHg 49%
    18:00 +31°C° 0 mm 3 m/s 757 mmHg 51%
    19:00 +30°C° 0 mm 4 m/s 757 mmHg 55%
    20:00 +29°C° 0 mm 4 m/s 758 mmHg 59%
    21:00 +28°C° 0 mm 4 m/s 758 mmHg 63%
    22:00 +28°C° 0 mm 3 m/s 758 mmHg 61%
    23:00 +28°C° 0 mm 3 m/s 758 mmHg 60%

    Demain, 20 Juillet, Samedi

    Heure Température Précipitation Vent Pression Humidité
    00:00 +28°C° 0 mm 2 m/s 758 mmHg 58%
    01:00 +28°C° 0 mm 2 m/s 758 mmHg 57%
    02:00 +27°C° 0 mm 3 m/s 758 mmHg 56%
    03:00 +27°C° 0 mm 3 m/s 758 mmHg 55%
    04:00 +28°C° 0 mm 3 m/s 759 mmHg 53%
    05:00 +29°C° 0 mm 3 m/s 759 mmHg 50%
    06:00 +30°C° 0 mm 2 m/s 760 mmHg 47%
    07:00 +31°C° 0 mm 2 m/s 760 mmHg 43%
    08:00 +34°C° 0 mm 2 m/s 760 mmHg 39%
    09:00 +35°C° 0 mm 2 m/s 760 mmHg 35%
    10:00 +36°C° 0 mm 3 m/s 760 mmHg 35%
    11:00 +36°C° 0 mm 4 m/s 760 mmHg 34%
    12:00 +37°C° 0 mm 5 m/s 760 mmHg 34%
    13:00 +36°C° 0 mm 7 m/s 760 mmHg 36%
    14:00 +37°C° 0 mm 8 m/s 760 mmHg 38%
    15:00 +37°C° 0 mm 9 m/s 760 mmHg 40%
    16:00 +35°C° 0 mm 8 m/s 760 mmHg 41%
    17:00 +34°C° 0 mm 8 m/s 760 mmHg 43%
    18:00 +33°C° 0 mm 7 m/s 761 mmHg 45%
    19:00 +32°C° 0 mm 6 m/s 761 mmHg 49%
    20:00 +30°C° 0 mm 5 m/s 761 mmHg 54%
    21:00 +29°C° 0 mm 3 m/s 761 mmHg 58%
    22:00 +29°C° 0 mm 3 m/s 762 mmHg 59%
    23:00 +29°C° 0 mm 3 m/s 762 mmHg 59%

    Après-demain, 21 Juillet, Dimanche

    Heure Température Précipitation Vent Pression Humidité
    00:00 +28°C° 0 mm 2 m/s 762 mmHg 59%
    01:00 +28°C° 0 mm 2 m/s 762 mmHg 58%
    02:00 +28°C° 0 mm 2 m/s 761 mmHg 57%
    03:00 +27°C° 0 mm 3 m/s 761 mmHg 57%
    04:00 +28°C° 0 mm 2 m/s 761 mmHg 55%
    05:00 +29°C° 0 mm 2 m/s 762 mmHg 53%
    06:00 +29°C° 0 mm 2 m/s 762 mmHg 51%
    07:00 +31°C° 0 mm 3 m/s 762 mmHg 45%
    08:00 +34°C° 0 mm 4 m/s 762 mmHg 40%
    09:00 +35°C° 0 mm 4 m/s 761 mmHg 34%
    10:00 +36°C° 0 mm 5 m/s 761 mmHg 34%
    11:00 +36°C° 0 mm 6 m/s 761 mmHg 35%
    12:00 +38°C° 0 mm 7 m/s 761 mmHg 35%
    13:00 +38°C° 0 mm 6 m/s 760 mmHg 36%
    14:00 +36°C° 0 mm 6 m/s 759 mmHg 37%
    15:00 +36°C° 0 mm 6 m/s 759 mmHg 38%
    16:00 +35°C° 0 mm 5 m/s 759 mmHg 42%
    17:00 +34°C° 0 mm 5 m/s 759 mmHg 46%
    18:00 +32°C° 0 mm 5 m/s 759 mmHg 50%
    19:00 +30°C° 0 mm 4 m/s 759 mmHg 57%
    20:00 +29°C° 0 mm 3 m/s 759 mmHg 64%
    21:00 +28°C° 0 mm 2 m/s 759 mmHg 71%
    22:00 +27°C° 0 mm 2 m/s 759 mmHg 71%
    23:00 +27°C° 0 mm 2 m/s 759 mmHg 71%

    22 Juillet, Lundi

    Heure Température Précipitation Vent Pression Humidité
    00:00 +27°C° 0 mm 3 m/s 759 mmHg 70%
    01:00 +27°C° 0 mm 3 m/s 759 mmHg 70%
    02:00 +27°C° 0 mm 3 m/s 758 mmHg 71%
    03:00 +26°C° 0 mm 3 m/s 758 mmHg 71%
    04:00 +27°C° 0 mm 3 m/s 758 mmHg 68%
    05:00 +28°C° 0 mm 3 m/s 758 mmHg 65%
    06:00 +28°C° 0 mm 3 m/s 758 mmHg 62%
    07:00 +30°C° 0 mm 3 m/s 758 mmHg 56%
    08:00 +32°C° 0 mm 4 m/s 758 mmHg 49%
    09:00 +34°C° 0 mm 4 m/s 758 mmHg 43%
    10:00 +34°C° 0 mm 4 m/s 758 mmHg 43%
    11:00 +34°C° 0 mm 5 m/s 757 mmHg 43%
    12:00 +35°C° 0 mm 5 m/s 757 mmHg 42%
    13:00 +34°C° 0 mm 5 m/s 757 mmHg 45%
    14:00 +34°C° 0 mm 5 m/s 756 mmHg 47%
    15:00 +34°C° 0 mm 5 m/s 756 mmHg 49%
    16:00 +33°C° 0 mm 5 m/s 756 mmHg 55%
    17:00 +32°C° 0 mm 4 m/s 756 mmHg 61%
    18:00 +30°C° 0 mm 4 m/s 755 mmHg 67%
    19:00 +29°C° 0 mm 4 m/s 756 mmHg 72%
    20:00 +28°C° 0 mm 4 m/s 756 mmHg 78%
    21:00 +27°C° 0 mm 4 m/s 756 mmHg 83%
    22:00 +27°C° 0 mm 4 m/s 756 mmHg 79%
    23:00 +28°C° 0 mm 4 m/s 756 mmHg 76%

    23 Juillet, Mardi

    Heure Température Précipitation Vent Pression Humidité
    00:00 +28°C° 0 mm 5 m/s 756 mmHg 73%
    01:00 +28°C° 0 mm 5 m/s 756 mmHg 72%
    02:00 +28°C° 0 mm 5 m/s 756 mmHg 72%
    03:00 +27°C° 0 mm 4 m/s 756 mmHg 72%
    04:00 +28°C° 0 mm 5 m/s 756 mmHg 68%
    05:00 +29°C° 0 mm 5 m/s 756 mmHg 64%
    06:00 +29°C° 0 mm 6 m/s 757 mmHg 60%
    07:00 +32°C° 0 mm 6 m/s 757 mmHg 56%
    08:00 +33°C° 0 mm 6 m/s 757 mmHg 51%
    09:00 +34°C° 0 mm 5 m/s 757 mmHg 47%
    10:00 +34°C° 0 mm 6 m/s 756 mmHg 45%
    11:00 +35°C° 0 mm 7 m/s 756 mmHg 44%
    12:00 +35°C° 0 mm 8 m/s 756 mmHg 43%
    13:00 +35°C° 0 mm 8 m/s 755 mmHg 44%
    14:00 +35°C° 0 mm 8 m/s 755 mmHg 45%
    15:00 +34°C° 0 mm 8 m/s 754 mmHg 46%
    16:00 +33°C° 0 mm 7 m/s 754 mmHg 50%
    17:00 +32°C° 0 mm 6 m/s 754 mmHg 53%
    18:00 +30°C° 0 mm 6 m/s 754 mmHg 57%
    19:00 +30°C° 0 mm 6 m/s 754 mmHg 60%
    20:00 +29°C° 0 mm 5 m/s 754 mmHg 63%
    21:00 +28°C° 0 mm 5 m/s 754 mmHg 66%
    22:00 +28°C° 0 mm 5 m/s 754 mmHg 66%
    23:00 +28°C° 0 mm 6 m/s 754 mmHg 66%

    24 Juillet, Mercredi

    Heure Température Précipitation Vent Pression Humidité
    00:00 +28°C° 0 mm 6 m/s 754 mmHg 67%
    01:00 +28°C° 0 mm 5 m/s 754 mmHg 66%
    02:00 +27°C° 0 mm 4 m/s 754 mmHg 65%
    03:00 +27°C° 0 mm 4 m/s 753 mmHg 64%
    04:00 +27°C° 0 mm 4 m/s 754 mmHg 64%
    05:00 +27°C° 0 mm 4 m/s 754 mmHg 63%
    06:00 +27°C° 0 mm 4 m/s 754 mmHg 63%
    07:00 +29°C° 0 mm 4 m/s 754 mmHg 57%
    08:00 +31°C° 0 mm 3 m/s 754 mmHg 51%
    09:00 +32°C° 0 mm 2 m/s 754 mmHg 45%
    10:00 +34°C° 0 mm 3 m/s 754 mmHg 44%
    11:00 +35°C° 0 mm 3 m/s 754 mmHg 42%
    12:00 +35°C° 0 mm 4 m/s 753 mmHg 40%
    13:00 +35°C° 0 mm 4 m/s 753 mmHg 41%
    14:00 +35°C° 0 mm 5 m/s 753 mmHg 41%
    15:00 +35°C° 0 mm 5 m/s 752 mmHg 42%
    16:00 +34°C° 0 mm 5 m/s 752 mmHg 46%
    17:00 +32°C° 0 mm 5 m/s 752 mmHg 51%
    18:00 +30°C° 0 mm 4 m/s 752 mmHg 56%
    19:00 +29°C° 0 mm 4 m/s 753 mmHg 60%
    20:00 +29°C° 0 mm 3 m/s 753 mmHg 64%
    21:00 +28°C° 0 mm 2 m/s 753 mmHg 68%
    22:00 +27°C° 0 mm 2 m/s 753 mmHg 69%
    23:00 +27°C° 0 mm 2 m/s 753 mmHg 70%
    Voir plus